ION SCV-019

导读

ION SCV-019(NORAD编号68435)是意大利D-Orbit公司开发的ION卫星运载船(SCV)系列任务航天器,作为独立可控的卫星平台,单次发射可支持多轨道部署任务,能适配1U至16U立方星及通用微卫星的精准投放。 完成部署主任务后,该卫星可依托剩余寿命拓展任务,承载搭载载荷,开展空间监视跟踪(SST)技术演示验证,通过星载传感器实现空间目标识别跟踪,补充太空态势感知数据,是商用小卫星基础设施复用的典型实践。

基本信息
目录编号:
68435
目录名称:
ION SCV-019
国际标识:
2026-067V
轨道中心:
EARTH
卫星名称:
ION SCV-019
卫星全名:
ION SCV-019
卫星状态:
在轨 (已飞行159 天)
发射日期:
2026-03-30 UTC
国别 :
意大利 (IT)
星等 :
--
轨道信息
数据来源 国际轨道数据
星历时间: 2026-09-05T18:44:01+0800
8小时前
查看轨道信息
半长轴: 6883.545km
偏心率: 0.0011258
轨道倾角: 97.463°
近地点辐角 115.514°
升交点赤经 206.027°
平近点角 244.726°
近地点: 497.658km
远地点: 513.158km
周期: 94.728分钟
每日圈数: 15.201436
详细信息
使用方式:
暂无
2D轨道图
3D轨道图
轨道高度分析图
轨道倾角分析图
轨道综合分析图
查看轨道综合分析图
交会数据列表
事件ID 空间交会对象 最接近时刻(TCA) 交会距离 交会风险概率(CRP) 交会风险指数(CRI) 操作
CDM_260906-091106-670406-843523
2026-09-06T
09:11:42+0000
1.013 km
极远距离
2.336542E-5 中风险 0.62